YAOGAN 15

导读

YAOGAN 15(遥感十五号)是中国自主研制的地球观测卫星,于2012年5月29日在太原卫星发射中心由长征四号丙运载火箭发射升空,顺利进入预定轨道。官方介绍其主要用于科学试验、国土资源普查、农作物估产和防灾减灾等领域,可获取高分辨率地表观测数据,服务国民经济发展。外界普遍认为遥感卫星系列具备军事观测能力,该卫星可能搭载雷达载荷,支持全天时全天候成像。作为中国对地观测体系的重要成员,它提升了我国遥感数据自主获取能力,持续为多领域提供数据支持。

Basic Information
目录编号:
38354
目录名称:
YAOGAN 15
国际标识:
2012-029A
轨道中心:
EARTH
卫星名称:
YAOGAN 15
卫星全名:
--
卫星状态:
在轨 (已飞行5172 天)
发射日期:
2012-05-29 UTC
国别 :
中国 (CN)
星等 :
--
Orbit Information
数据来源 国际轨道数据 AOE轨道数据
星历时间 2026-07-27T22:55:06+0800
7小时前
查看轨道信息
2026-07-27T00:00:00+0800
1天前
查看轨道信息
半长轴 7569.027km 7569.031km
偏心率 0.0025055 0.002487
轨道倾角 100.733° 100.733°
近地点辐角 198.910° 201.158°
升交点赤经 54.129° 53.157°
平近点角 161.108° 308.762°
近地点 1171.925km 1172.069km
远地点 1209.855km 1209.719km
周期 109.224分钟 109.225分钟
每日圈数 13.183865 13.183853
Detailed Information
使用方式:
暂无
2D Orbit Map
3D Orbit Map
Orbit Altitude Analysis Chart
Orbit Inclination Analysis Chart
Orbit Comprehensive Analysis Chart
View Comprehensive Chart